EW4423 Weather Reports


Display with metric or nautical units.
time (UTC)temp
F
wind
direction
speed
MPH
gust
MPH
rain 1hr
in
rain 24hr
in
rain mn
in
humidity
%
barometer
mb
20260507024607 55 66 10.0 15.0 0.03 0.03 0.03 89 1016.2
20260507023053 55 73 7.0 15.0 0.00 0.00 0.00 89 1016.1
20260507021607 55 55 9.0 17.0 0.00 0.00 0.00 89 1015.5
20260507020053 55 46 8.0 14.0 0.00 0.00 0.00 89 1015.0
20260507014607 56 59 9.0 16.0 0.00 0.00 0.00 88 1014.4
20260507013044 56 40 9.0 16.0 0.00 0.00 0.00 89 1014.6
20260507011544 56 53 7.0 14.0 0.00 0.00 0.00 89 1014.5
20260507010047 57 63 9.0 16.0 0.00 0.00 0.00 88 1013.9
20260507004542 57 51 5.0 16.0 0.00 0.00 0.00 88 1014.0
20260507003039 58 67 9.0 17.0 0.00 0.00 0.00 88 1013.4
20260507001539 58 53 10.0 15.0 0.00 0.00 0.00 88 1013.3
20260507000042 59 42 5.0 12.0 0.00 0.00 0.00 88 1013.4
20260506234537 59 19 7.0 13.0 0.00 0.00 0.00 88 1013.3
20260506233037 59 43 6.0 13.0 0.00 0.00 0.00 88 1013.2
20260506231536 60 63 9.0 15.0 0.00 0.00 0.00 88 1013.1
20260506230036 60 56 3.0 11.0 0.00 0.00 0.00 88 1012.9
20260506224537 60 19 7.0 14.0 0.00 0.00 0.00 88 1012.5
20260506223037 60 54 6.0 11.0 0.00 0.00 0.00 89 1012.2
20260506221534 60 22 5.0 12.0 0.00 0.00 0.00 89 1012.2
20260506220037 60 38 4.0 10.0 0.00 0.00 0.00 89 1012.2
20260506214532 60 5 3.0 10.0 0.00 0.00 0.00 89 1012.3
20260506213031 60 44 4.0 11.0 0.00 0.00 0.00 89 1012.5
20260506211532 60 360 3.0 9.0 0.00 0.00 0.00 88 1012.7
20260506210032 60 5 3.0 10.0 0.00 0.00 0.00 88 1012.4
20260506204530 60 310 6.0 13.0 0.00 0.00 0.00 88 1013.2
20260506203030 61 61 1.0 11.0 0.00 0.00 0.00 88 1012.5
20260506201541 61 42 2.0 6.0 0.00 0.00 0.00 88 1012.6
20260506200029 61 60 0.0 10.0 0.00 0.00 0.00 88 1012.4
20260506194529 60 48 2.0 7.0 0.00 0.00 0.00 88 1012.5
20260506193027 60 42 4.0 8.0 0.00 0.00 0.00 88 1012.1
20260506191527 60 65 3.0 11.0 0.00 0.00 0.00 88 1011.8
20260506190026 59 66 7.0 15.0 0.00 0.00 0.00 89 1011.3
20260506184526 59 341 6.0 12.0 0.00 0.00 0.00 88 1012.0
20260506183024 59 117 11.0 19.0 0.00 0.00 0.00 88 1011.7
20260506181522 58 74 14.0 19.0 0.00 0.00 0.00 88 1010.7
20260506180021 58 54 10.0 15.0 0.00 0.00 0.00 88 1011.9
20260506174520 57 47 5.0 14.0 0.00 0.00 0.00 88 1013.2
20260506173019 57 39 9.0 14.0 0.00 0.00 0.00 88 1012.0
20260506171519 57 304 4.0 9.0 0.00 0.00 0.00 88 1014.2
20260506170019 57 342 3.0 9.0 0.00 0.00 0.00 88 1014.3
20260506164517 57 68 4.0 9.0 0.00 0.00 0.00 88 1013.7
20260506163030 56 17 3.0 8.0 0.00 0.00 0.00 88 1013.9
20260506161516 56 13 2.0 5.0 0.00 0.00 0.00 88 1014.6
20260506160016 56 19 2.0 10.0 0.00 0.00 0.00 88 1014.1
20260506154514 56 347 5.0 11.0 0.00 0.00 0.00 87 1013.7
20260506153009 56 12 2.0 9.0 0.00 0.00 0.00 87 1013.2
20260506151509 56 11 2.0 10.0 0.00 0.00 0.00 87 1012.7
20260506150008 56 13 2.0 11.0 0.00 0.00 0.00 87 1013.2
20260506144508 55 9 3.0 11.0 0.00 0.00 0.00 87 1012.7
20260506143007 55 13 6.0 12.0 0.00 0.00 0.00 87 1012.3
20260506141501 55 19 3.0 13.0 0.00 0.00 0.00 87 1012.2
20260506140104 55 355 5.0 12.0 0.00 0.00 0.00 86 1012.1
20260506134558 55 26 4.0 11.0 0.00 0.00 0.00 86 1011.8
20260506133101 55 340 5.0 12.0 0.00 0.00 0.00 86 1012.0
20260506131552 55 355 5.0 12.0 0.00 0.00 0.00 86 1011.8
20260506130053 55 15 5.0 11.0 0.00 0.00 0.00 86 1011.7
20260506124545 56 47 6.0 12.0 0.00 0.00 0.00 85 1011.5
20260506123043 56 11 7.0 13.0 0.00 0.00 0.00 84 1011.4
20260506121539 57 59 3.0 9.0 0.00 0.00 0.00 84 1010.8
20260506120037 57 5 3.0 11.0 0.00 0.00 0.00 83 1010.6
20260506114534 57 344 7.0 12.0 0.00 0.00 0.00 83 1010.3
20260506113031 57 360 4.0 12.0 0.00 0.00 0.00 82 1009.9
20260506111528 58 5 2.0 13.0 0.00 0.00 0.00 82 1009.6
20260506110025 58 355 2.0 9.0 0.00 0.00 0.00 82 1009.3
20260506104522 58 320 4.0 11.0 0.00 0.00 0.00 82 1009.1
20260506103022 58 27 4.0 11.0 0.00 0.00 0.00 82 1009.1
20260506101519 59 26 3.0 9.0 0.00 0.00 0.00 82 1008.6
20260506100015 59 346 3.0 8.0 0.00 0.00 0.00 82 1008.8
20260506094514 59 15 3.0 8.0 0.00 0.00 0.00 82 1008.7
20260506093013 59 45 1.0 4.0 0.00 0.00 0.00 82 1008.4
20260506091609 59 16 3.0 10.0 0.00 0.00 0.00 81 1008.3
20260506090006 60 5 3.0 9.0 0.00 0.00 0.00 81 1008.4
20260506084511 61 24 2.0 9.0 0.00 0.00 0.00 81 1008.3
20260506083001 61 355 5.0 10.0 0.00 0.00 0.00 81 1008.4
20260506081600 61 14 5.0 11.0 0.00 0.00 0.00 81 1008.1
20260506080112 62 335 1.0 10.0 0.00 0.00 0.00 81 1008.2
20260506073105 62 18 6.0 13.0 0.00 0.00 0.00 80 1008.0
20260506071551 63 341 3.0 12.0 0.00 0.00 0.00 80 1008.0
20260506061554 66 327 3.0 12.0 0.00 0.00 0.00 80 1007.7
20260506044517 76 18 2.0 9.0 0.00 0.00 0.00 83 1006.9
20260506043014 76 279 0.0 3.0 0.00 0.00 0.00 83 1006.6
20260506041514 76 278 1.0 4.0 0.00 0.00 0.00 83 1006.5
20260506040017 76 280 2.0 5.0 0.00 0.00 0.00 83 1006.6
20260506034513 76 278 2.0 4.0 0.00 0.00 0.00 83 1006.3
20260506033012 76 211 3.0 7.0 0.00 0.00 0.00 83 1005.8
20260506031512 76 184 3.0 7.0 0.00 0.00 0.00 83 1005.4
20260506030011 76 184 6.0 10.0 0.00 0.00 0.00 82 1004.9